Regional Weather Roundup
Issued by NWS Bismarck, ND

Home | Current Version | Previous Version | Text Only | Print | Product List | Glossary On
Versions: 1 2 3 4 5 6 7 8 9 10 11 12 13 14 15 16 17 18 19 20 21 22 23 24 25 26 27 28 29 30 31 32 33 34 35 36 37 38 39 40 41 42 43 44 45 46 47 48 49 50
000
ASUS43 KBIS 201502
RWRBIS

NWR BROADCAST TEXT
NATIONAL WEATHER SERVICE BISMARCK ND
900 AM CST MON NOV 20 2017

NOTE: "FAIR" INDICATES FEW OR NO CLOUDS BELOW 12,000 FEET WITH NO
SIGNIFICANT WEATHER AND/OR OBSTRUCTIONS TO VISIBILITY.


CITY           SKY/WX    TMP DP  RH WIND       PRES   REMARKS
WILLISTON      CLOUDY    36  22  56 SW6       29.40R
MINOT          CLOUDY    43  21  41 SW16      29.33F
MINOT AFB      NOT AVBL
BISMARCK       CLOUDY    34  24  67 CALM      29.43F
DICKINSON      CLOUDY    40  18  41 W14       29.43S
GARRISON         N/A     36  27  69 W13       29.38S
HETTINGER ARPT CLOUDY    39  15  37 CALM      29.50S
JAMESTOWN      CLOUDY    34  24  67 SW8       29.39F
CARRINGTON     FAIR      34  23  64 W15G23    29.38F
LINTON           N/A     30  19  64 S5        29.47F
OAKES            N/A     28  25  86 S14       29.46S WCI  17
RUGBY          FAIR      32  25  74 SW9       29.32S
TIOGA          FAIR      37  19  48 W20       29.36S
$$

CITY           SKY/WX    TMP DP  RH WIND       PRES   REMARKS
GRAND FORKS    CLOUDY    30  27  88 S14       29.35F WCI  19
GRAND FORKS AF CLOUDY    33  26  76 S12       29.34F
DEVILS LAKE    CLOUDY    33  25  72 SW8       29.33F
FARGO          CLOUDY    34  24  67 S12       29.43F
CANDO          FAIR      28  28 100 W8        29.33F
CAVALIER       FAIR      30  25  80 S10       29.29F
GWINNER          N/A     34  25  69 SW16      29.44F
LANGDON        FAIR      28  27  93 SW12      29.29S WCI  18
ROLLA          FAIR      28  23  80 SW10      29.29S WCI  19
WALHALLA       FAIR      36  25  64 SW12      29.27F
$$

CITY           SKY/WX    TMP DP  RH WIND       PRES   REMARKS
ABERDEEN       MOSUNNY   27  24  89 S8        29.50F WCI  19
MOBRIDGE       CLOUDY    33  26  75 S8        29.47S
BUFFALO          N/A     42  16  34 W18       29.46R
RAPID CITY     CLOUDY    37  20  50 CALM      29.57S
GLASGOW        CLOUDY    41  18  39 W10       29.46R
SIDNEY         CLOUDY    35  22  58 S3        29.42R
WOLF POINT     CLOUDY    39  22  50 W7        29.44R
GLENDIVE       CLOUDY    41  19  41 SW9       29.46R
MILES CITY     CLOUDY    36  22  56 SW8       29.51S
BAKER          CLOUDY    35  20  54 NW3       29.50R
$$

CITY           SKY/WX    TMP DP  RH WIND       PRES   REMARKS
BILLINGS       CLOUDY    46  17  31 SW15      29.60R
GREAT FALLS    CLOUDY    42  25  50 SW15      29.62R
$$





USA.gov is the U.S. government's official web portal to all federal, state and local government web resources and services.